Moline, Illinois, United States (61265)
Lat: 41.51N, Lon: 90.52W
Wx Zone: ILZ015
Local Info
Past Weather Observations for Today

NOTE: This archive is for the closest National Weather Service station to Moline. Information may differ from the station used for current weather conditions.

Click here for Long-term Archive

Time Weather Temperature Dewpoint Humidity Pressure Winds Precip Visibility
17:52
Overcast
27°F / -3°C 21°F / -6°C 80% 29.74 in
(1007 mb)
W 21.9 mph
(W 35 kph)
0.00 in
(0.00 mm)
8SM
17:37
Overcast
Light Snow
27°F / -3°C 21°F / -6°C 80% 29.74 in
(1007 mb)
W 20.7 mph
(W 33 kph)
0.00 in
(0.00 mm)
8SM
17:30
Overcast
Light Snow
27°F / -3°C 21°F / -6°C 80% 29.74 in
(1007 mb)
W 24.2 mph
(W 39 kph)
0.00 in
(0.00 mm)
2 1/2SM
16:52
Overcast
27°F / -3°C 21°F / -6°C 80% 29.71 in
(1006 mb)
W 21.9 mph
(W 35 kph)
- 8SM
15:52
Overcast
Hazy
27°F / -3°C 21°F / -6°C 80% 29.65 in
(1004 mb)
W 25.3 mph
(W 41 kph)
0.00 in
(0.00 mm)
4SM
15:04
Overcast
Light Snow
27°F / -3°C 21°F / -6°C 80% 29.62 in
(1003 mb)
W 27.6 mph
(W 44 kph)
0.00 in
(0.00 mm)
6SM
15:01
Overcast
Light Snow
27°F / -3°C 21°F / -6°C 80% 29.62 in
(1003 mb)
W 21.9 mph
(W 35 kph)
0.00 in
(0.00 mm)
1 1/2SM
14:52
Overcast
Light Snow
27°F / -3°C 21°F / -6°C 80% 29.62 in
(1003 mb)
W 28.8 mph
(W 46 kph)
0.01 in
(0.25 mm)
3/4SM
13:52
Overcast
Snow
27°F / -3°C 23°F / -5°C 86% 29.56 in
(1001 mb)
W 26.5 mph
(W 43 kph)
0.01 in
(0.25 mm)
1/2SM
13:48
Overcast
Snow
28°F / -2°C 25°F / -4°C 86% 29.56 in
(1001 mb)
SSW 26.5 mph
(SSW 43 kph)
0.01 in
(0.25 mm)
1/2SM
13:26
Overcast
Light Snow
28°F / -2°C 23°F / -5°C 80% 29.56 in
(1001 mb)
W 25.3 mph
(W 41 kph)
0.00 in
(0.00 mm)
1SM
13:12
Overcast
28°F / -2°C 23°F / -5°C 80% 29.53 in
(1000 mb)
W 26.5 mph
(W 43 kph)
0.00 in
(0.00 mm)
2SM
12:52
Overcast
Unknown Precip
28°F / -2°C 23°F / -5°C 80% 29.53 in
(1000 mb)
W 25.3 mph
(W 41 kph)
0.00 in
(0.00 mm)
5SM
12:01
Overcast
28°F / -2°C 23°F / -5°C 80% 29.47 in
(998 mb)
W 26.5 mph
(W 43 kph)
- 9SM
11:52
Overcast
28°F / -2°C 25°F / -4°C 86% 29.47 in
(998 mb)
W 20.7 mph
(W 33 kph)
0.00 in
(0.00 mm)
10SM
11:25
Overcast
28°F / -2°C 25°F / -4°C 86% 29.47 in
(998 mb)
W 32.2 mph
(W 52 kph)
- 10SM
10:52
Overcast
30°F / -1°C 25°F / -4°C 80% 29.44 in
(997 mb)
W 26.5 mph
(W 43 kph)
0.00 in
(0.00 mm)
10SM
10:39
Overcast
Light Snow
30°F / -1°C 25°F / -4°C 80% 29.44 in
(997 mb)
W 28.8 mph
(W 46 kph)
0.00 in
(0.00 mm)
3SM
09:52
Overcast
Light Snow
30°F / -1°C 27°F / -3°C 86% 29.42 in
(996 mb)
W 21.9 mph
(W 35 kph)
0.00 in
(0.00 mm)
2SM
09:50
Overcast
Unknown Precip
30°F / -1°C 27°F / -3°C 86% 29.42 in
(996 mb)
W 23 mph
(W 37 kph)
0.00 in
(0.00 mm)
2SM
09:39
Overcast
Light Snow
30°F / -1°C 25°F / -4°C 80% 29.42 in
(996 mb)
W 32.2 mph
(W 52 kph)
0.00 in
(0.00 mm)
2SM
09:25
Overcast
Light Snow
30°F / -1°C 27°F / -3°C 86% 29.39 in
(995 mb)
W 26.5 mph
(W 43 kph)
0.00 in
(0.00 mm)
3/4SM
09:14
Overcast
30°F / -1°C 25°F / -4°C 80% 29.39 in
(995 mb)
W 18.4 mph
(W 30 kph)
0.00 in
(0.00 mm)
9SM
08:58
Overcast
Light Snow
30°F / -1°C 27°F / -3°C 86% 29.39 in
(995 mb)
W 24.2 mph
(W 39 kph)
0.00 in
(0.00 mm)
2SM
08:52
Overcast
Light Snow
30°F / -1°C 27°F / -3°C 86% 29.39 in
(995 mb)
W 31.1 mph
(W 50 kph)
0.01 in
(0.25 mm)
1SM
07:52
Overcast
Light Snow
30°F / -1°C 28°F / -2°C 93% 29.33 in
(993 mb)
W 19.6 mph
(W 32 kph)
0.05 in
(1.27 mm)
3/4SM
07:31
Overcast
Snow
30°F / -1°C 28°F / -2°C 93% 29.3 in
(992 mb)
W 23 mph
(W 37 kph)
0.03 in
(0.76 mm)
1/2SM
06:59
Overcast
Light Snow
30°F / -1°C 28°F / -2°C 93% 29.3 in
(992 mb)
W 25.3 mph
(W 41 kph)
0.01 in
(0.25 mm)
3/4SM
06:52
Overcast
Snow
30°F / -1°C 28°F / -2°C 93% 29.3 in
(992 mb)
W 20.7 mph
(W 33 kph)
0.16 in
(4.06 mm)
1/2SM
06:34
Overcast
Snow
30°F / -1°C 30°F / -1°C 100% 29.27 in
(991 mb)
W 21.9 mph
(W 35 kph)
0.12 in
(3.05 mm)
1/2SM
06:24
Overcast
Heavy Snow
32°F / 0°C 28°F / -2°C 87% 29.27 in
(991 mb)
W 23 mph
(W 37 kph)
0.09 in
(2.29 mm)
1/4SM
06:15
Overcast
Snow
32°F / 0°C 30°F / -1°C 93% 29.27 in
(991 mb)
W 21.9 mph
(W 35 kph)
0.06 in
(1.52 mm)
1/2SM
06:06
Overcast
Light Snow
32°F / 0°C 30°F / -1°C 93% 29.27 in
(991 mb)
W 18.4 mph
(W 30 kph)
0.03 in
(0.76 mm)
1SM
05:55
Overcast
Light Snow
34°F / 1°C 30°F / -1°C 87% 29.24 in
(990 mb)
W 23 mph
(W 37 kph)
0.01 in
(0.25 mm)
1 3/4SM
05:52
Overcast
Light Snow
34°F / 1°C 30°F / -1°C 87% 29.24 in
(990 mb)
WNW 23 mph
(WNW 37 kph)
0.03 in
(0.76 mm)
2 1/2SM
05:47
Overcast
Rain
34°F / 1°C 30°F / -1°C 87% 29.24 in
(990 mb)
WNW 20.7 mph
(WNW 33 kph)
0.02 in
(0.51 mm)
2 1/2SM
05:31
Overcast
Rain
34°F / 1°C 32°F / 0°C 93% 29.24 in
(990 mb)
WNW 21.9 mph
(WNW 35 kph)
0.02 in
(0.51 mm)
2 1/2SM
05:22
Overcast
Rain
34°F / 1°C 32°F / 0°C 93% 29.24 in
(990 mb)
WNW 19.6 mph
(WNW 32 kph)
0.00 in
(0.00 mm)
2 1/2SM
05:07
Overcast
Light Rain
36°F / 2°C 32°F / 0°C 87% 29.24 in
(990 mb)
WNW 18.4 mph
(WNW 30 kph)
0.00 in
(0.00 mm)
3SM
04:52
Overcast
Unknown Precip
36°F / 2°C 34°F / 1°C 93% 29.24 in
(990 mb)
WNW 13.8 mph
(WNW 22 kph)
0.00 in
(0.00 mm)
3SM
04:40
Overcast
Unknown Precip
36°F / 2°C 34°F / 1°C 93% 29.21 in
(989 mb)
WNW 19.6 mph
(WNW 32 kph)
0.00 in
(0.00 mm)
3SM
04:21
Overcast
Unknown Precip
37°F / 3°C 34°F / 1°C 87% 29.21 in
(989 mb)
WNW 17.3 mph
(WNW 28 kph)
0.00 in
(0.00 mm)
3SM
03:52
Overcast
Fog And Mist
37°F / 3°C 34°F / 1°C 87% 29.18 in
(988 mb)
NW 18.4 mph
(NW 30 kph)
- 4SM
02:52
Overcast
39°F / 4°C 36°F / 2°C 87% 29.18 in
(988 mb)
NW 20.7 mph
(NW 33 kph)
- 7SM
01:52
Overcast
41°F / 5°C 37°F / 3°C 87% 29.18 in
(988 mb)
WNW 12.7 mph
(WNW 20 kph)
- 7SM
00:52
Overcast
43°F / 6°C 41°F / 5°C 93% 29.15 in
(987 mb)
WNW 18.4 mph
(WNW 30 kph)
- 7SM
00:00
Overcast
45°F / 7°C 45°F / 7°C 100% 29.15 in
(987 mb)
NW 23 mph
(NW 37 kph)
- 8SM
Time Weather Temperature Dewpoint Humidity Pressure Winds Precip Visibility


Weather for websites

WeatherForYou.com, LLC is not responsible for any damages or problems caused by this service. Current weather conditions are obtained from the closest station including government and personal stations which may have varying degrees of accuracy. Weather forecasts are derived from the NOAA NDFD. Like all things, this site belongs to Jesus Christ... He just trusts me to maintain it. If you have any questions or comments email webmaster@weatherforyou.com

Copyright © 2014, WeatherForYou.com LLC. All rights reserved.